TimeCDT,TemperatureF,Dew PointF,Humidity,Sea Level PressureIn,VisibilityMPH,Wind Direction,Wind SpeedMPH,Gust SpeedMPH,PrecipitationIn,Events,Conditions,WindDirDegrees,DateUTC
12:15 AM,72.9,72.9,100,30.03,10.0,Calm,Calm,-,N/A,,Clear,0,2012-10-15 05:15:00
12:35 AM,72.5,72.5,100,30.04,7.0,Calm,Calm,-,N/A,,Scattered Clouds,0,2012-10-15 05:35:00
12:55 AM,72.1,72.1,100,30.04,7.0,NNW,3.5,-,N/A,,Mostly Cloudy,330,2012-10-15 05:55:00
1:15 AM,73.0,73.0,100,30.03,7.0,Calm,Calm,-,N/A,,Overcast,0,2012-10-15 06:15:00
1:35 AM,73.0,73.0,100,30.04,10.0,NW,4.6,-,N/A,,Overcast,310,2012-10-15 06:35:00
1:55 AM,73.8,73.8,100,30.03,10.0,NW,4.6,-,N/A,,Overcast,320,2012-10-15 06:55:00
2:15 AM,73.2,73.2,100,30.03,10.0,NW,3.5,-,N/A,,Scattered Clouds,320,2012-10-15 07:15:00
2:35 AM,72.7,72.7,100,30.03,10.0,Calm,Calm,-,N/A,,Clear,0,2012-10-15 07:35:00
2:55 AM,72.5,72.5,100,30.02,10.0,Calm,Calm,-,N/A,,Scattered Clouds,0,2012-10-15 07:55:00
3:15 AM,72.5,72.5,100,30.02,10.0,Calm,Calm,-,N/A,,Scattered Clouds,0,2012-10-15 08:15:00
3:35 AM,72.1,72.1,100,30.03,10.0,NW,3.5,-,N/A,,Mostly Cloudy,320,2012-10-15 08:35:00
3:55 AM,71.8,71.8,100,30.03,10.0,NNW,4.6,-,N/A,,Overcast,330,2012-10-15 08:55:00
4:15 AM,71.8,71.8,100,30.02,10.0,NNW,3.5,-,N/A,,Mostly Cloudy,330,2012-10-15 09:15:00
4:35 AM,69.8,69.8,100,30.02,10.0,Calm,Calm,-,N/A,,Mostly Cloudy,0,2012-10-15 09:35:00
4:55 AM,70.7,70.7,100,30.02,10.0,North,5.8,-,N/A,,Scattered Clouds,350,2012-10-15 09:55:00
5:15 AM,69.6,69.6,100,30.02,10.0,North,6.9,-,N/A,,Clear,360,2012-10-15 10:15:00
5:35 AM,69.1,69.1,100,30.02,10.0,North,4.6,-,N/A,,Clear,10,2012-10-15 10:35:00
5:55 AM,68.5,68.5,100,30.03,10.0,North,5.8,-,N/A,,Clear,360,2012-10-15 10:55:00
6:15 AM,67.6,67.6,100,30.03,10.0,North,5.8,-,N/A,,Clear,360,2012-10-15 11:15:00
6:35 AM,67.1,67.1,100,30.03,10.0,NNW,5.8,-,N/A,,Clear,340,2012-10-15 11:35:00
6:55 AM,66.2,66.2,100,30.04,10.0,North,6.9,-,N/A,,Clear,360,2012-10-15 11:55:00
7:15 AM,66.2,66.2,100,30.03,10.0,North,5.8,-,N/A,,Clear,360,2012-10-15 12:15:00
7:35 AM,66.9,66.9,100,30.04,10.0,North,5.8,-,N/A,,Clear,360,2012-10-15 12:35:00
7:55 AM,66.9,66.9,100,30.04,10.0,North,5.8,-,N/A,,Clear,10,2012-10-15 12:55:00
8:15 AM,67.6,67.1,98,30.05,10.0,North,6.9,-,N/A,,Clear,10,2012-10-15 13:15:00
8:35 AM,68.5,66.0,92,30.05,10.0,NNE,6.9,-,N/A,,Clear,20,2012-10-15 13:35:00
8:55 AM,70.2,63.3,79,30.06,10.0,NNE,8.1,-,N/A,,Clear,20,2012-10-15 13:55:00
9:15 AM,71.6,62.4,73,30.06,10.0,NNE,9.2,-,N/A,,Clear,20,2012-10-15 14:15:00
9:35 AM,72.9,62.2,69,30.06,10.0,NE,10.4,16.1,N/A,,Clear,40,2012-10-15 14:35:00
9:55 AM,75.0,62.2,64,30.07,10.0,NE,9.2,-,N/A,,Clear,40,2012-10-15 14:55:00
10:15 AM,77.5,61.2,57,30.07,10.0,NE,11.5,-,N/A,,Clear,40,2012-10-15 15:15:00
10:35 AM,77.7,60.6,55,30.07,10.0,ENE,8.1,-,N/A,,Clear,60,2012-10-15 15:35:00
10:55 AM,79.3,60.8,53,30.07,10.0,ENE,9.2,-,N/A,,Clear,60,2012-10-15 15:55:00
11:15 AM,80.6,60.8,51,30.06,10.0,NE,8.1,-,N/A,,Clear,40,2012-10-15 16:15:00
11:35 AM,81.3,60.8,50,30.06,10.0,ENE,9.2,-,N/A,,Clear,70,2012-10-15 16:35:00
11:55 AM,82.4,60.6,48,30.06,10.0,NE,9.2,-,N/A,,Clear,50,2012-10-15 16:55:00
12:15 PM,82.9,60.3,46,30.06,10.0,ENE,8.1,-,N/A,,Clear,60,2012-10-15 17:15:00
12:35 PM,82.0,60.8,48,30.05,10.0,ENE,6.9,-,N/A,,Clear,60,2012-10-15 17:35:00
12:55 PM,82.2,61.0,48,30.04,10.0,NE,6.9,-,N/A,,Clear,40,2012-10-15 17:55:00
1:15 PM,83.5,61.2,47,30.03,10.0,ENE,6.9,-,N/A,,Clear,70,2012-10-15 18:15:00
1:35 PM,83.5,60.1,45,30.03,10.0,ENE,5.8,-,N/A,,Clear,70,2012-10-15 18:35:00
1:55 PM,83.8,59.5,44,30.01,10.0,NE,6.9,-,N/A,,Clear,50,2012-10-15 18:55:00
2:15 PM,84.7,58.5,41,30.01,10.0,ENE,4.6,-,N/A,,Clear,70,2012-10-15 19:15:00
2:35 PM,86.9,57.2,36,29.99,10.0,NNE,6.9,-,N/A,,Clear,30,2012-10-15 19:35:00
2:55 PM,87.3,56.8,35,29.98,10.0,ENE,5.8,-,N/A,,Clear,60,2012-10-15 19:55:00
3:15 PM,86.9,57.2,36,29.98,10.0,North,9.2,-,N/A,,Clear,350,2012-10-15 20:15:00
3:35 PM,83.8,57.6,41,29.97,10.0,North,9.2,-,N/A,,Clear,360,2012-10-15 20:35:00
3:55 PM,84.6,58.8,42,29.97,10.0,NNE,8.1,-,N/A,,Clear,20,2012-10-15 20:55:00
4:15 PM,84.4,57.6,40,29.96,10.0,NNE,6.9,-,N/A,,Clear,20,2012-10-15 21:15:00
4:35 PM,84.6,55.9,37,29.96,10.0,North,8.1,-,N/A,,Clear,10,2012-10-15 21:35:00
4:55 PM,82.9,56.3,40,29.95,10.0,North,8.1,-,N/A,,Clear,360,2012-10-15 21:55:00
5:15 PM,81.9,57.0,43,29.96,10.0,NNE,5.8,-,N/A,,Clear,20,2012-10-15 22:15:00
5:35 PM,81.0,57.4,44,29.96,10.0,NNE,6.9,-,N/A,,Clear,20,2012-10-15 22:35:00
5:55 PM,80.2,57.4,45,29.96,10.0,North,4.6,-,N/A,,Clear,10,2012-10-15 22:55:00
6:15 PM,79.0,58.8,50,29.96,5.0,North,3.5,-,N/A,,Haze,360,2012-10-15 23:15:00
6:35 PM,76.5,60.8,58,29.97,10.0,North,3.5,-,N/A,,Clear,360,2012-10-15 23:35:00
6:55 PM,74.3,61.5,64,29.97,10.0,North,4.6,-,N/A,,Clear,360,2012-10-15 23:55:00
7:15 PM,72.1,61.2,68,29.97,10.0,North,3.5,-,N/A,,Clear,360,2012-10-16 00:15:00
7:35 PM,71.1,61.7,72,29.98,10.0,Calm,Calm,-,N/A,,Clear,0,2012-10-16 00:35:00
7:55 PM,70.3,61.7,74,29.98,10.0,Calm,Calm,-,N/A,,Clear,0,2012-10-16 00:55:00
8:15 PM,69.1,62.8,80,29.99,10.0,Calm,Calm,-,N/A,,Clear,0,2012-10-16 01:15:00
8:35 PM,68.9,63.0,81,29.99,10.0,Calm,Calm,-,N/A,,Clear,0,2012-10-16 01:35:00
8:55 PM,67.6,62.2,83,30.00,10.0,North,3.5,-,N/A,,Clear,360,2012-10-16 01:55:00
9:15 PM,67.1,62.4,85,30.01,10.0,North,3.5,-,N/A,,Clear,350,2012-10-16 02:15:00
9:35 PM,67.3,62.2,84,30.01,10.0,North,3.5,-,N/A,,Clear,360,2012-10-16 02:35:00
9:55 PM,66.9,62.1,84,30.01,10.0,Calm,Calm,-,N/A,,Clear,0,2012-10-16 02:55:00
10:15 PM,66.6,62.2,86,30.01,10.0,Calm,Calm,-,N/A,,Clear,0,2012-10-16 03:15:00
10:35 PM,66.2,62.6,88,30.01,10.0,Calm,Calm,-,N/A,,Clear,0,2012-10-16 03:35:00
10:55 PM,65.7,64.2,95,30.00,10.0,North,4.6,-,N/A,,Clear,360,2012-10-16 03:55:00
11:15 PM,64.2,64.2,100,30.01,10.0,Calm,Calm,-,N/A,,Clear,0,2012-10-16 04:15:00
11:35 PM,64.2,64.2,100,30.00,10.0,Calm,Calm,-,N/A,,Clear,0,2012-10-16 04:35:00
11:55 PM,64.0,64.0,100,30.00,10.0,Calm,Calm,-,N/A,,Clear,0,2012-10-16 04:55:00